• In Lithuania
  • List of Countries
  • For 7 days
  • Water Temperature
  • Satellite Maps
  • Weather Map
  • Weather Widgets
  • user-avatar
    Login

    Hourly Weather Melbourne

    Today, 25 September, Monday

    Time Temperature Precipitation Wind Pressure Humidity
    00:00 +11°C° 0 mm 6 mps 750 mmHg 73%
    01:00 +12°C° 0 mm 5 mps 751 mmHg 75%
    02:00 +12°C° 0.1 mm 5 mps 751 mmHg 78%
    03:00 +11°C° 0.1 mm 4 mps 751 mmHg 81%
    04:00 +11°C° 0.1 mm 4 mps 752 mmHg 85%
    05:00 +11°C° 0.3 mm 4 mps 752 mmHg 87%
    06:00 +10°C° 0.3 mm 4 mps 752 mmHg 89%
    07:00 +10°C° 0.3 mm 4 mps 753 mmHg 92%
    08:00 +11°C° 0.4 mm 4 mps 753 mmHg 89%
    09:00 +12°C° 0.4 mm 4 mps 754 mmHg 86%
    10:00 +13°C° 0.4 mm 4 mps 754 mmHg 83%
    11:00 +13°C° 0.5 mm 4 mps 755 mmHg 82%
    12:00 +13°C° 0.5 mm 4 mps 755 mmHg 81%
    13:00 +13°C° 0.5 mm 4 mps 755 mmHg 81%
    14:00 +13°C° 0.3 mm 4 mps 756 mmHg 79%
    15:00 +13°C° 0.3 mm 4 mps 756 mmHg 77%
    16:00 +13°C° 0.3 mm 4 mps 756 mmHg 76%
    17:00 +12°C° 0 mm 4 mps 757 mmHg 76%
    18:00 +11°C° 0 mm 3 mps 757 mmHg 77%
    19:00 +9°C° 0 mm 2 mps 758 mmHg 77%
    20:00 +8°C° 0 mm 2 mps 758 mmHg 80%
    21:00 +8°C° 0 mm 2 mps 759 mmHg 82%
    22:00 +7°C° 0 mm 2 mps 760 mmHg 84%
    23:00 +6°C° 0 mm 2 mps 760 mmHg 85%

    Tomorrow, 26 September, Tuesday

    Time Temperature Precipitation Wind Pressure Humidity
    00:00 +6°C° 0 mm 2 mps 760 mmHg 87%
    01:00 +5°C° 0 mm 2 mps 761 mmHg 88%
    02:00 +5°C° 0 mm 2 mps 761 mmHg 89%
    03:00 +5°C° 0 mm 2 mps 761 mmHg 90%
    04:00 +4°C° 0 mm 2 mps 761 mmHg 91%
    05:00 +5°C° 0 mm 2 mps 761 mmHg 89%
    06:00 +6°C° 0 mm 1 mps 761 mmHg 88%
    07:00 +7°C° 0 mm 1 mps 761 mmHg 86%
    08:00 +9°C° 0 mm 1 mps 762 mmHg 75%
    09:00 +12°C° 0 mm 1 mps 762 mmHg 64%
    10:00 +15°C° 0 mm 1 mps 762 mmHg 53%
    11:00 +16°C° 0 mm 1 mps 761 mmHg 49%
    12:00 +18°C° 0 mm 1 mps 761 mmHg 45%
    13:00 +19°C° 0 mm 1 mps 761 mmHg 41%
    14:00 +19°C° 0 mm 1 mps 760 mmHg 42%
    15:00 +18°C° 0 mm 2 mps 760 mmHg 43%
    16:00 +18°C° 0 mm 2 mps 759 mmHg 45%
    17:00 +16°C° 0 mm 2 mps 759 mmHg 53%
    18:00 +13°C° 0 mm 2 mps 760 mmHg 62%
    19:00 +10°C° 0 mm 2 mps 760 mmHg 71%
    20:00 +10°C° 0 mm 2 mps 760 mmHg 72%
    21:00 +10°C° 0 mm 2 mps 760 mmHg 74%
    22:00 +9°C° 0 mm 2 mps 760 mmHg 75%
    23:00 +9°C° 0 mm 2 mps 760 mmHg 76%

    Day after tomorrow, 27 September, Wednesday

    Time Temperature Precipitation Wind Pressure Humidity
    00:00 +8°C° 0 mm 2 mps 759 mmHg 76%
    01:00 +8°C° 0 mm 3 mps 758 mmHg 77%
    02:00 +9°C° 0 mm 3 mps 757 mmHg 71%
    03:00 +10°C° 0 mm 3 mps 756 mmHg 65%
    04:00 +10°C° 0 mm 3 mps 756 mmHg 59%
    05:00 +10°C° 0.1 mm 3 mps 755 mmHg 63%
    06:00 +10°C° 0.1 mm 4 mps 755 mmHg 66%
    07:00 +11°C° 0.1 mm 4 mps 755 mmHg 69%
    08:00 +13°C° 0 mm 5 mps 754 mmHg 61%
    09:00 +16°C° 0 mm 6 mps 753 mmHg 54%
    10:00 +18°C° 0 mm 7 mps 753 mmHg 47%
    11:00 +20°C° 0 mm 7 mps 752 mmHg 48%
    12:00 +20°C° 0 mm 7 mps 751 mmHg 50%
    13:00 +21°C° 0 mm 7 mps 750 mmHg 52%
    14:00 +21°C° 0.1 mm 6 mps 750 mmHg 56%
    15:00 +20°C° 0.1 mm 5 mps 749 mmHg 61%
    16:00 +20°C° 0.1 mm 4 mps 749 mmHg 65%
    17:00 +18°C° 1.3 mm 4 mps 749 mmHg 71%
    18:00 +17°C° 1.3 mm 4 mps 749 mmHg 77%
    19:00 +16°C° 1.3 mm 3 mps 749 mmHg 84%
    20:00 +14°C° 0.2 mm 3 mps 750 mmHg 83%
    21:00 +13°C° 0.2 mm 3 mps 750 mmHg 82%
    22:00 +13°C° 0.2 mm 3 mps 751 mmHg 82%
    23:00 +12°C° 0 mm 4 mps 751 mmHg 80%

    28 September, Thursday

    Time Temperature Precipitation Wind Pressure Humidity
    00:00 +12°C° 0 mm 4 mps 751 mmHg 79%
    01:00 +10°C° 0 mm 5 mps 750 mmHg 78%
    02:00 +11°C° 0 mm 4 mps 751 mmHg 81%
    03:00 +10°C° 0 mm 4 mps 751 mmHg 83%
    04:00 +10°C° 0 mm 4 mps 751 mmHg 86%
    05:00 +10°C° 0.1 mm 4 mps 752 mmHg 87%
    06:00 +11°C° 0.1 mm 3 mps 753 mmHg 87%
    07:00 +11°C° 0.1 mm 3 mps 754 mmHg 88%
    08:00 +12°C° 0.1 mm 3 mps 755 mmHg 85%
    09:00 +13°C° 0.1 mm 3 mps 755 mmHg 82%
    10:00 +13°C° 0.1 mm 4 mps 756 mmHg 78%
    11:00 +14°C° 0.1 mm 4 mps 756 mmHg 76%
    12:00 +14°C° 0.1 mm 4 mps 756 mmHg 73%
    13:00 +14°C° 0.1 mm 4 mps 756 mmHg 70%
    14:00 +14°C° 0.1 mm 4 mps 756 mmHg 69%
    15:00 +14°C° 0.1 mm 4 mps 756 mmHg 68%
    16:00 +14°C° 0.1 mm 4 mps 756 mmHg 68%
    17:00 +13°C° 0.1 mm 3 mps 757 mmHg 71%
    18:00 +12°C° 0.1 mm 3 mps 757 mmHg 75%
    19:00 +10°C° 0.1 mm 3 mps 758 mmHg 79%
    20:00 +10°C° 0 mm 3 mps 758 mmHg 80%
    21:00 +9°C° 0 mm 3 mps 759 mmHg 82%
    22:00 +8°C° 0 mm 3 mps 759 mmHg 83%
    23:00 +8°C° 0 mm 3 mps 759 mmHg 83%

    29 September, Friday

    Time Temperature Precipitation Wind Pressure Humidity
    00:00 +7°C° 0 mm 4 mps 759 mmHg 83%
    01:00 +6°C° 0 mm 4 mps 758 mmHg 83%
    02:00 +6°C° 0 mm 4 mps 758 mmHg 84%
    03:00 +6°C° 0 mm 4 mps 758 mmHg 84%
    04:00 +6°C° 0 mm 4 mps 759 mmHg 85%
    05:00 +6°C° 0 mm 4 mps 759 mmHg 85%
    06:00 +7°C° 0 mm 4 mps 759 mmHg 85%
    07:00 +7°C° 0 mm 4 mps 760 mmHg 85%
    08:00 +10°C° 0 mm 4 mps 760 mmHg 76%
    09:00 +12°C° 0 mm 5 mps 760 mmHg 68%
    10:00 +14°C° 0 mm 5 mps 760 mmHg 60%
    11:00 +14°C° 0.1 mm 5 mps 759 mmHg 58%
    12:00 +15°C° 0.1 mm 6 mps 759 mmHg 56%
    13:00 +16°C° 0.1 mm 6 mps 758 mmHg 54%
    14:00 +15°C° 0.4 mm 6 mps 758 mmHg 61%
    15:00 +14°C° 0.4 mm 5 mps 758 mmHg 69%
    16:00 +14°C° 0.4 mm 5 mps 757 mmHg 76%
    17:00 +13°C° 0.2 mm 5 mps 757 mmHg 77%
    18:00 +12°C° 0.2 mm 5 mps 758 mmHg 79%
    19:00 +11°C° 0.2 mm 4 mps 758 mmHg 80%
    20:00 +10°C° 0.1 mm 5 mps 758 mmHg 79%
    21:00 +10°C° 0.1 mm 5 mps 758 mmHg 77%
    22:00 +9°C° 0.1 mm 5 mps 759 mmHg 76%
    23:00 +9°C° 0 mm 5 mps 758 mmHg 76%

    30 September, Saturday

    Time Temperature Precipitation Wind Pressure Humidity
    00:00 +9°C° 0 mm 6 mps 758 mmHg 77%
    01:00 +9°C° 0 mm 6 mps 758 mmHg 77%
    02:00 +8°C° 0 mm 5 mps 758 mmHg 78%
    03:00 +8°C° 0 mm 5 mps 759 mmHg 79%
    04:00 +8°C° 0 mm 5 mps 759 mmHg 79%
    05:00 +8°C° 0 mm 5 mps 759 mmHg 80%
    06:00 +8°C° 0 mm 4 mps 760 mmHg 80%
    07:00 +8°C° 0 mm 4 mps 761 mmHg 80%
    08:00 +10°C° 0.1 mm 4 mps 761 mmHg 77%
    09:00 +11°C° 0.1 mm 4 mps 762 mmHg 74%
    10:00 +12°C° 0.1 mm 4 mps 762 mmHg 72%
    11:00 +13°C° 0.1 mm 5 mps 762 mmHg 65%
    12:00 +14°C° 0.1 mm 5 mps 762 mmHg 59%
    13:00 +15°C° 0.1 mm 6 mps 762 mmHg 52%
    14:00 +15°C° 0 mm 5 mps 761 mmHg 54%
    15:00 +15°C° 0 mm 5 mps 761 mmHg 56%
    16:00 +15°C° 0 mm 5 mps 761 mmHg 58%
    17:00 +13°C° 0.1 mm 5 mps 762 mmHg 64%
    18:00 +12°C° 0.1 mm 4 mps 763 mmHg 70%
    19:00 +10°C° 0.1 mm 4 mps 763 mmHg 77%
    20:00 +10°C° 0 mm 4 mps 764 mmHg 80%
    21:00 +8°C° 0 mm 4 mps 764 mmHg 83%
    22:00 +8°C° 0 mm 3 mps 765 mmHg 86%
    23:00 +8°C° 0 mm 3 mps 765 mmHg 87%
    Show more